RH
54 42 42 44 48 48 47 47 46 44 42 39 36 34 31 29 30 30 30 30 29 29 30 31 31 32 32 33 34 36 35 37 41 39 37 37 35 35 40 47 51 38 37
54 49 47 49 51 51 53 52 51 48 44 42 41 41 40 38 37 37 36 35 35 37 38 35 34 35 37 38 39 40 42 44 46 50 56 67 45 39 39 40 43 46 41
56 52 51 53 54 55 55 55 49 47 45 45 43 44 47 48 48 46 47 48 50 48 50 48 46 43 42 43 45 46 47 48 49 50 60 72 60 59 56 52 51 51 56
60 58 58 59 62 60 56 53 47 44 44 45 45 46 49 52 54 57 55 56 58 62 61 59 57 53 50 48 47 48 49 51 53 57 71 71 78 73 71 67 62 55 56
63 66 66 61 61 61 55 49 45 48 47 48 50 51 53 57 61 65 66 63 62 62 63 61 56 55 54 53 53 52 52 55 59 66 66 71 73 70 67 65 66 62 59
65 68 63 62 62 55 43 45 49 49 48 51 53 58 62 67 69 71 69 67 65 62 60 55 54 52 51 50 49 50 53 57 65 67 67 65 67 69 67 66 68 67 64
62 69 61 62 58 47 45 49 53 58 60 60 64 69 69 70 72 71 70 69 61 59 56 55 55 53 50 48 47 45 46 51 53 55 55 54 52 52 57 58 61 62 67
61 63 57 59 50 46 45 50 57 60 65 69 71 75 74 70 69 68 67 67 61 58 54 48 44 41 38 35 29 29 33 41 44 41 42 42 42 42 43 42 44 48 56
57 57 60 52 50 47 48 55 58 61 66 70 70 73 73 67 68 67 65 60 55 49 43 38 33 29 23 21 23 24 27 33 35 34 35 33 34 33 34 34 35 40 45
57 55 52 48 52 47 52 58 59 58 62 65 67 70 65 66 66 61 57 51 45 38 31 28 22 19 19 20 20 23 28 41 39 32 33 36 34 34 33 34 36 37 38
54 53 49 53 51 51 53 55 56 59 62 64 67 69 66 69 70 58 48 42 34 28 23 19 18 19 19 19 21 24 31 35 32 33 33 37 33 31 28 29 31 33 33
50 50 55 59 58 55 54 54 58 61 64 66 68 71 69 64 61 52 38 30 26 21 18 18 19 23 29 30 29 29 33 34 29 30 29 30 29 27 25 22 23 25 33
52 51 55 56 57 58 58 58 57 59 67 69 71 75 70 62 56 38 30 27 20 19 19 22 26 30 30 29 28 27 27 31 28 27 21 20 24 32 29 22 19 16 15
54 54 54 54 55 58 58 57 56 56 65 71 70 71 66 54 44 34 31 26 22 27 26 29 30 26 22 20 20 24 25 27 26 27 15 22 27 30 30 26 20 18 14
54 57 57 54 53 55 56 56 52 53 61 68 68 66 58 47 39 34 29 24 20 21 27 29 25 27 21 20 19 19 21 24 27 27 16 16 16 17 18 16 17 19 18
54 56 58 54 52 52 54 52 48 52 56 64 66 55 46 40 35 31 24 18 17 22 28 28 29 28 29 22 19 20 21 23 26 30 25 19 16 15 14 13 12 10 17
54 58 59 56 54 52 49 48 47 51 56 60 57 45 36 34 31 27 23 16 17 17 21 26 28 25 27 26 20 19 19 19 20 21 26 27 20 17 14 10 7 7 8
53 56 58 58 55 52 48 46 47 48 52 50 42 38 33 29 26 25 19 14 12 15 19 24 27 25 24 25 24 24 20 18 19 20 20 22 25 24 15 9 9 8 8
56 58 61 59 56 54 49 45 46 49 49 41 39 34 32 27 24 24 16 11 11 14 19 22 27 25 26 26 25 22 19 18 18 18 19 18 17 17 17 14 14 13 11
57 58 63 67 64 59 51 47 46 45 40 36 36 32 26 23 18 13 11 10 13 15 20 19 20 24 26 22 22 17 17 18 18 19 18 18 18 17 16 16 19 17 16
60 62 62 70 73 65 57 50 47 42 36 34 32 25 21 16 12 11 12 12 15 17 21 20 19 20 19 18 18 18 19 18 19 18 18 18 17 17 17 18 18 19 20
62 59 60 67 74 73 62 55 49 43 37 35 29 21 16 15 14 15 16 15 20 21 20 18 21 20 19 19 24 24 25 23 22 18 18 18 17 17 18 20 20 21 22
61 61 64 68 73 80 68 59 51 45 39 35 27 20 19 20 21 22 22 23 23 23 20 19 21 21 20 20 21 26 31 30 30 24 20 18 18 19 19 22 23 23 24
62 64 64 66 76 77 78 62 58 46 42 35 26 23 25 26 27 29 29 27 23 24 22 20 19 23 23 23 20 20 22 26 24 30 27 23 21 21 22 23 26 27 25
65 68 73 75 78 78 76 68 62 52 46 36 32 30 29 32 34 32 31 28 26 25 24 22 22 26 29 28 26 26 25 23 20 22 25 31 29 24 25 27 27 27 26
54 61 68 72 77 80 73 69 66 57 49 40 34 34 33 37 37 36 35 32 30 30 29 27 28 28 28 28 30 30 29 29 30 25 28 28 30 30 29 28 29 26 25